Helicity
83 56 48 75 99 106 116 131 137 136 116 115 141 121 113 120 137 131 128 169 179 220 266 250 224 176 137 130 118 96 82 79 81 88 94 92 99 118 164 202 140 115 200
95 70 90 92 85 114 134 153 169 164 158 139 129 106 82 70 67 79 116 139 132 125 146 157 133 110 86 109 125 124 83 87 93 92 92 124 75 110 169 199 158 181 138
129 107 90 112 109 113 131 132 139 155 158 177 126 132 92 79 93 94 58 115 157 110 85 91 126 117 93 88 101 103 104 72 88 152 135 108 106 73 108 148 220 197 196
78 106 131 123 114 101 101 110 117 126 114 106 123 148 137 138 101 128 131 128 95 142 146 77 77 111 110 81 81 97 84 80 61 70 123 175 87 89 117 116 107 133 205
122 116 101 104 114 108 84 55 41 53 67 81 105 106 122 104 93 108 145 108 130 75 84 113 76 70 85 99 87 89 96 90 68 62 65 102 146 147 127 91 101 145 111
114 101 99 94 89 71 56 48 48 52 46 48 56 70 78 78 92 105 75 96 88 96 67 47 59 60 96 114 80 82 78 82 87 88 85 75 76 95 156 164 111 56 60
115 108 112 100 74 56 50 40 39 55 60 59 64 68 74 72 76 84 109 90 80 58 76 62 37 29 32 76 47 75 89 90 99 112 90 100 97 83 74 93 45 78 102
104 111 110 99 77 69 72 56 52 55 71 79 79 83 90 77 71 60 51 61 62 75 83 138 91 127 2 -4 58 86 109 143 140 136 136 100 94 83 77 87 80 47 39
114 116 100 101 92 98 77 57 54 59 70 76 83 90 85 97 102 119 83 53 35 69 87 74 78 89 55 66 89 91 135 156 152 151 154 131 90 100 94 77 76 78 44
132 127 116 116 106 95 79 66 56 61 68 79 86 86 94 106 104 110 129 125 109 107 102 119 101 71 66 77 87 104 128 149 131 124 150 163 131 97 90 70 53 76 59
146 154 128 132 112 92 71 64 62 62 69 78 81 84 87 93 105 109 115 116 109 109 126 123 140 116 96 78 86 87 116 130 125 139 145 164 151 111 106 92 78 65 93
174 184 165 163 138 117 99 82 70 68 72 78 78 78 81 80 77 86 85 88 94 104 95 75 57 51 57 52 52 60 83 106 124 124 127 146 154 138 141 145 135 101 100
216 203 170 177 155 126 91 76 70 72 79 79 87 92 101 99 88 72 65 65 69 66 41 32 42 34 26 13 10 23 36 53 81 100 99 115 137 139 144 136 129 104 117
245 209 234 188 169 116 81 67 75 87 103 103 107 113 112 106 95 88 94 91 64 75 55 46 46 32 45 55 53 10 13 18 22 40 58 89 122 116 107 102 107 107 105
204 185 220 184 129 111 85 91 84 107 106 113 110 116 110 104 96 96 95 78 37 44 48 50 44 49 48 54 73 23 25 28 36 35 36 31 82 94 53 38 68 71 97
188 198 230 191 155 110 94 93 108 124 124 118 113 108 106 103 98 92 61 37 42 43 48 53 43 60 45 98 70 38 26 35 51 65 66 68 116 143 85 40 43 20 23
209 236 242 201 142 117 104 113 116 120 120 107 110 105 104 98 82 59 33 44 42 41 45 57 53 59 87 111 92 45 21 23 32 50 66 71 85 130 110 79 50 28 60
316 299 215 170 139 118 138 112 116 124 108 112 110 100 78 70 29 25 43 38 30 36 42 52 57 52 78 115 95 33 19 13 23 27 49 54 75 111 127 87 72 51 49
376 294 185 168 142 130 123 122 133 116 112 102 85 49 39 24 38 43 42 40 33 35 37 36 41 45 47 115 122 49 13 19 15 10 18 53 55 110 137 83 94 100 122
397 317 203 190 164 149 122 142 143 136 121 67 49 46 51 45 45 41 37 36 32 32 19 22 32 48 51 95 105 77 15 20 4 0 7 59 48 78 96 37 52 62 73
299 222 202 208 184 170 170 165 132 108 65 66 61 61 50 41 39 39 31 23 17 11 14 21 27 43 49 72 110 97 25 5 -11 -8 -7 0 66 52 69 50 11 14 15
247 210 202 167 123 124 135 129 108 75 68 65 59 53 49 39 29 21 8 9 8 20 30 37 32 28 47 87 87 78 55 47 4 0 -13 -14 39 48 56 42 80 79 47
240 198 165 139 121 110 92 91 63 41 49 57 44 37 37 25 14 22 25 21 24 35 37 33 30 33 35 38 87 79 64 43 2 -14 6 40 49 60 38 95 108 82 57
193 159 153 147 138 115 83 58 35 31 45 42 36 37 43 35 40 31 37 45 45 38 34 26 20 13 14 16 14 14 11 15 7 16 19 17 9 11 16 34 47 25 18
174 156 145 148 126 90 81 66 54 54 53 42 38 35 22 18 38 56 55 46 54 58 36 28 27 16 15 11 7 2 3 6 -4 -7 -1 3 4 5 -1 -2 -3 -5 21
178 162 152 123 98 85 74 69 62 49 44 44 46 45 35 28 23 25 44 53 40 37 34 40 31 17 32 35 44 29 15 45 15 11 11 17 15 16 21 31 38 33 36
Wind_Speed
42 46 49 51 53 55 58 60 61 61 60 58 58 57 56 54 53 52 51 54 55 56 57 58 60 62 63 67 69 73 77 79 72 80 80 80 79 87 88 77 65 71 62
42 46 50 51 53 56 58 59 61 62 61 59 58 56 55 51 51 52 52 54 54 54 54 55 58 60 64 66 68 72 77 78 75 80 84 85 78 73 71 68 62 57 51
47 47 48 52 55 57 59 59 60 61 61 62 59 58 51 47 53 52 55 56 56 56 56 58 61 63 63 65 68 71 74 80 80 80 79 81 80 74 60 61 59 55 59
42 45 50 52 55 56 56 57 58 60 59 60 59 59 56 56 55 56 57 57 56 57 58 60 61 64 65 67 69 72 77 78 83 80 76 83 86 91 90 60 53 53 56
44 46 46 48 50 52 54 54 54 55 57 58 58 58 58 57 58 58 62 59 58 58 58 62 62 63 65 68 69 73 76 76 80 80 81 82 83 83 89 91 76 55 48
39 41 41 43 46 49 52 54 56 56 57 58 57 57 59 58 58 61 60 61 61 64 65 66 65 65 69 73 75 74 76 76 77 76 78 79 78 79 83 87 80 82 84
35 37 39 43 45 48 51 53 55 56 58 58 58 58 59 57 57 60 61 61 62 64 70 72 72 71 72 74 73 75 74 74 75 76 77 76 78 77 80 84 89 88 84
32 34 38 42 43 46 50 53 55 57 58 57 57 57 59 57 56 57 58 56 61 65 68 69 69 69 71 71 71 71 70 72 74 77 75 77 75 75 79 79 82 90 88
28 30 35 38 40 45 47 51 55 56 57 56 55 56 56 57 57 58 55 53 55 58 61 62 60 59 60 64 65 65 67 69 69 72 74 75 76 73 75 76 79 85 92
24 27 31 35 38 41 44 49 52 55 55 54 54 54 55 55 55 55 56 55 53 55 57 58 55 53 55 57 58 61 63 64 65 66 68 68 72 74 74 74 77 81 90
21 25 28 31 35 38 43 48 50 52 53 52 52 52 53 53 53 53 54 53 50 51 54 52 50 52 53 54 55 57 60 60 61 61 61 64 68 69 70 72 73 77 78
20 22 25 30 34 39 43 46 47 49 49 48 49 50 51 52 51 51 51 51 49 47 48 48 49 52 52 52 51 54 56 58 59 60 61 63 64 64 65 68 70 72 75
18 20 24 28 32 38 39 43 44 46 46 46 46 48 50 51 51 50 48 48 48 45 45 47 49 51 49 50 51 53 55 56 57 59 60 63 63 62 63 63 66 68 71
21 21 25 26 31 34 37 39 42 42 43 44 45 47 49 49 49 48 47 46 47 46 46 46 48 49 52 53 54 54 55 57 58 60 60 64 66 64 64 62 64 67 69
22 22 23 25 29 31 33 36 38 40 40 40 43 45 46 46 46 46 45 44 44 45 46 46 49 51 55 57 57 55 55 57 59 61 61 63 68 66 62 61 62 63 64
23 23 22 23 27 27 29 31 36 38 37 39 41 42 43 44 44 43 42 42 43 45 47 48 49 53 55 60 57 56 56 57 60 63 63 64 68 69 66 64 61 61 63
23 21 20 20 20 23 25 30 33 33 35 36 39 39 41 42 42 40 39 40 41 44 46 49 50 53 59 63 59 57 55 57 60 63 66 65 68 71 68 66 64 62 61
19 17 15 14 15 18 24 25 27 30 31 34 36 38 40 39 39 38 37 38 39 41 44 47 50 52 58 63 60 56 55 56 58 60 66 66 69 72 71 67 65 64 64
17 14 11 10 13 17 19 22 24 25 28 32 34 37 38 37 37 36 36 37 37 40 43 46 49 52 56 61 63 56 55 57 58 59 63 68 69 73 73 68 68 67 67
11 10 6 11 12 15 16 19 21 23 26 28 31 34 35 36 35 35 34 36 38 40 42 45 49 52 56 61 63 60 57 58 57 58 60 66 68 70 72 70 71 71 72
6 5 8 10 12 15 15 17 18 19 21 26 29 31 33 36 34 35 35 35 37 39 41 44 48 53 57 60 64 63 57 56 57 59 62 66 71 71 73 73 72 74 73
4 4 6 8 8 9 10 13 14 16 20 22 26 29 32 32 32 32 32 35 38 42 45 47 50 54 58 62 63 64 63 62 61 63 66 68 72 72 74 76 77 77 76
3 3 3 4 6 7 8 9 10 14 17 21 24 27 30 27 27 31 35 39 43 45 46 48 51 54 58 60 64 64 64 65 63 64 67 71 73 75 75 79 81 81 81
3 2 1 3 4 6 7 7 11 12 16 19 22 25 26 27 31 36 40 43 45 46 48 49 52 55 60 64 65 66 67 67 66 67 68 71 73 74 77 80 82 82 83
3 4 3 1 4 3 4 5 7 11 15 18 20 23 25 28 32 38 41 43 47 49 50 53 53 58 62 66 66 66 69 69 69 66 68 72 76 78 80 82 83 83 86
3 2 2 2 4 1 2 4 8 10 12 16 20 24 27 30 32 33 37 41 43 46 49 53 55 56 61 66 69 68 66 72 70 68 73 76 79 81 84 86 87 87 89
Wind_Direction
335 337 338 339 337 337 335 334 332 333 332 329 323 319 317 316 317 317 317 315 313 311 307 305 304 304 302 302 303 301 297 294 296 293 292 289 286 283 282 281 281 285 288
333 336 336 338 338 337 337 336 335 334 332 330 329 325 320 319 318 320 319 317 315 314 310 309 305 305 303 302 303 304 299 295 296 292 291 290 291 288 284 285 285 279 269
329 333 336 337 337 336 336 336 336 335 335 333 331 329 328 323 321 319 317 315 313 311 310 307 304 302 302 302 303 302 302 297 294 292 291 289 287 295 290 283 282 277 274
333 336 335 336 338 339 339 338 339 338 339 337 334 331 325 321 321 319 317 314 314 311 308 305 304 303 303 301 302 302 299 297 294 294 290 288 286 284 288 293 284 283 277
330 334 339 341 344 347 349 350 348 347 344 341 337 332 328 324 319 319 314 313 311 310 310 307 306 306 304 305 304 302 302 299 294 292 291 290 287 288 283 284 287 286 285
333 338 345 347 349 351 350 350 350 350 350 348 345 339 330 325 320 317 316 315 310 306 304 308 307 307 303 300 299 302 301 300 298 296 292 289 288 287 286 285 289 284 281
334 338 340 343 347 348 349 348 347 345 344 342 342 343 342 338 328 319 315 313 311 309 306 303 304 301 299 300 300 303 302 302 299 298 294 294 290 289 286 285 284 283 283
331 335 338 340 347 347 347 347 346 343 344 344 344 341 338 341 337 328 322 320 312 313 315 309 304 304 299 300 302 304 305 304 303 298 297 294 293 291 287 285 287 282 282
326 332 338 342 345 345 348 346 343 343 345 346 345 343 339 337 338 336 329 325 321 322 318 319 314 314 303 299 302 304 306 309 309 304 301 296 294 293 291 287 284 281 279
322 328 336 340 344 347 346 344 344 344 345 348 349 347 343 341 339 342 335 328 326 326 323 324 319 308 304 305 306 309 313 318 318 313 308 303 298 295 293 292 287 282 277
312 322 330 336 341 344 342 341 343 344 345 349 351 349 347 345 342 342 343 333 327 326 330 321 318 320 319 321 327 315 322 325 325 325 321 315 305 299 296 294 290 285 283
306 318 326 330 335 337 338 339 344 345 347 351 352 349 348 346 343 343 343 340 333 334 334 332 332 337 332 333 329 328 332 334 333 332 331 325 320 306 302 297 294 291 287
297 307 317 324 329 332 336 337 343 345 348 351 351 350 348 347 341 341 340 343 340 335 333 334 340 341 335 331 333 339 342 343 343 340 338 335 332 317 310 305 300 297 293
291 298 309 319 324 330 334 337 340 347 350 350 350 349 348 348 346 342 339 340 339 334 332 335 335 337 337 336 333 339 344 347 349 347 341 340 334 329 326 318 312 303 299
286 291 304 312 318 326 333 338 344 349 352 353 351 350 352 350 348 346 345 344 343 341 338 338 339 340 343 341 339 341 345 347 348 347 345 345 343 338 336 329 325 317 308
286 292 300 308 310 324 334 341 343 346 354 352 351 354 354 352 348 348 348 350 348 347 345 346 345 346 345 342 344 345 349 351 350 349 345 344 343 339 338 342 337 333 324
281 289 296 304 314 327 336 338 343 351 353 354 356 358 355 352 349 346 346 347 349 352 351 351 350 352 351 347 345 346 352 353 352 352 349 347 346 343 338 339 342 340 337
280 290 294 304 318 332 340 347 351 354 357 359 1 0 359 355 352 350 347 347 349 353 355 356 356 354 352 349 347 344 354 353 354 354 352 349 346 344 342 340 338 339 340
279 283 286 307 323 333 343 348 354 359 2 4 4 5 5 360 358 353 350 347 348 353 355 353 354 351 352 349 349 345 348 350 351 350 352 350 346 346 345 342 337 334 335
285 277 292 318 329 338 348 355 358 1 4 9 15 18 12 9 356 354 344 348 352 350 352 354 353 351 351 348 350 348 345 346 343 344 343 346 344 345 347 345 340 336 333
277 253 299 316 326 339 352 360 7 11 14 18 14 9 9 13 360 359 347 345 343 346 345 350 353 351 351 347 349 349 344 337 340 341 340 342 343 344 346 345 342 339 335
218 269 305 320 342 6 14 8 10 2 18 16 12 12 13 6 350 338 330 336 341 351 352 351 351 352 350 349 346 348 350 346 348 347 345 343 343 344 346 347 344 342 341
210 278 314 357 31 34 24 30 19 36 32 20 18 18 14 334 318 330 334 341 349 348 348 347 347 346 347 345 345 344 347 349 348 347 346 346 347 346 348 347 347 347 345
195 166 102 58 21 1 23 22 61 47 30 26 22 9 341 324 332 349 356 352 347 347 345 345 344 345 347 347 347 348 348 348 348 348 350 350 349 350 349 348 348 349 347
169 142 130 47 308 39 19 14 10 28 29 19 356 341 332 335 354 356 351 2 2 358 356 353 358 353 350 348 349 351 351 351 350 353 353 352 350 348 348 348 347 347 345
169 168 192 225 240 87 320 345 8 12 2 356 346 340 341 338 344 359 1 7 8 9 9 5 360 356 354 350 349 349 352 351 351 353 351 350 349 347 346 345 344 344 343